Cordova, SC

6:14 PM EDT on September 26, 2016 (GMT -0400)
Orangeburg Municipal

Weather History for KOGB - June, 2013

Change the Weather History Date:

Saturday, June 15, 2013

  Actual Average Record
Temperature  
Mean Temperature 75 °F 78 °F  
Max Temperature 86 °F 89 °F 101 °F (2015)
Min Temperature 63 °F 68 °F 56 °F (1988)
Degree Days  
Heating Degree Days 0 0  
Month to date heating degree days 0 0  
Since 1 June heating degree days 0 0  
Since 1 July heating degree days 2181 2332  
Cooling Degree Days 10 13  
Month to date cooling degree days 213 180  
Year to date cooling degree days 475 483  
Since 1 June cooling degree days 213 180  
Growing Degree Days 24 (Base 50)    
Moisture  
Dew Point 61 °F    
Average Humidity 63    
Maximum Humidity 87    
Minimum Humidity 37    
Precipitation  
Precipitation 0.00 in 0.18 in 1.01 in (1974)
Month to date precipitation 4.47 2.48  
Year to date precipitation 21.85 20.10  
Sea Level Pressure  
Sea Level Pressure 30.09 in    
Wind  
Wind Speed 3 mph (SSE)    
Max Wind Speed 10 mph    
Max Gust Speed 14 mph    
Visibility 10 miles    
Events      
T = Trace of Precipitation, MM = Missing Value Source: NWS Daily Summary

Daily Weather History Graph

Daily Weather History Graph

Search for Another Location

Airport or City:

Trip Planner

Search our weather history database for the weather conditions in past years. The results will help you decide how hot, cold, wet, or windy it might be!

Date:

Astronomy

Jun. 15, 2013 Rise Set
Actual Time 6:13 AM EDT 8:34 PM EDT
Civil Twilight 5:44 AM EDT 9:03 PM EDT
Nautical Twilight 5:08 AM EDT 9:39 PM EDT
Astronomical Twilight 4:29 AM EDT 10:18 PM EDT
Moon 12:29 PM EDT (6/15) 12:25 AM EDT (6/15)
Length of Visible Light 15h 19m
Length of Day
14h 21m
Waxing Crescent, 39% of the Moon is Illuminated
Jun 15
Waxing Crescent
Jun 16
First Quarter
Jun 23
Full
Jun 30
Last Quarter
Jul 8
New

Hourly Weather History & Observations

Time (EDT) Temp. Heat Index Dew Point Humidity Pressure Visibility Wind Dir Wind Speed Gust Speed Precip Events Conditions
12:53 AM 66.9 °F - 62.1 °F 84% 30.04 in 10.0 mi Calm Calm - N/A   Clear
1:53 AM 66.0 °F - 61.0 °F 84% 30.04 in 10.0 mi Calm Calm - N/A   Clear
2:53 AM 66.0 °F - 60.1 °F 81% 30.04 in 10.0 mi NE 3.5 mph - N/A   Clear
3:53 AM 64.0 °F - 60.1 °F 87% 30.04 in 10.0 mi Calm Calm - N/A   Clear
4:53 AM 64.0 °F - 60.1 °F 87% 30.04 in 10.0 mi Calm Calm - N/A   Clear
5:53 AM 64.0 °F - 60.1 °F 87% 30.05 in 10.0 mi Calm Calm - N/A   Clear
6:53 AM 64.9 °F - 61.0 °F 87% 30.07 in 10.0 mi Calm Calm - N/A   Clear
7:53 AM 71.1 °F - 63.0 °F 75% 30.10 in 10.0 mi Calm Calm - N/A   Clear
8:53 AM 75.0 °F - 66.0 °F 73% 30.12 in 10.0 mi Calm Calm - N/A   Clear
9:53 AM 78.1 °F - 64.9 °F 64% 30.12 in 10.0 mi SE 4.6 mph - N/A   Clear
10:53 AM 81.0 °F 81.6 °F 60.1 °F 49% 30.13 in 10.0 mi ESE 5.8 mph - N/A   Scattered Clouds
11:53 AM 82.0 °F 82.1 °F 59.0 °F 45% 30.14 in 10.0 mi Variable 3.5 mph - N/A   Scattered Clouds
12:53 PM 82.9 °F 82.6 °F 57.9 °F 42% 30.12 in 10.0 mi Variable 4.6 mph - N/A   Scattered Clouds
1:53 PM 82.9 °F 82.6 °F 57.9 °F 42% 30.11 in 10.0 mi SSE 4.6 mph - N/A   Scattered Clouds
2:53 PM 84.9 °F 83.7 °F 55.9 °F 37% 30.09 in 10.0 mi Variable 4.6 mph - N/A   Partly Cloudy
3:53 PM 82.9 °F 82.6 °F 57.9 °F 42% 30.09 in 10.0 mi SE 4.6 mph - N/A   Mostly Cloudy
4:53 PM 84.0 °F 83.5 °F 57.9 °F 41% 30.09 in 10.0 mi SE 4.6 mph - N/A   Overcast
5:53 PM 84.0 °F 83.5 °F 57.9 °F 41% 30.08 in 10.0 mi SSE 4.6 mph - N/A   Clear
6:53 PM 82.9 °F 84.0 °F 63.0 °F 51% 30.08 in 10.0 mi South 6.9 mph - N/A   Clear
7:53 PM 80.1 °F 81.7 °F 64.0 °F 58% 30.09 in 10.0 mi SSE 5.8 mph - N/A   Clear
8:53 PM 75.9 °F - 63.0 °F 64% 30.09 in 10.0 mi South 3.5 mph - N/A   Clear
9:53 PM 73.9 °F - 62.1 °F 66% 30.10 in 10.0 mi South 4.6 mph - N/A   Clear
10:53 PM 72.0 °F - 61.0 °F 68% 30.12 in 10.0 mi South 3.5 mph - N/A   Clear
11:53 PM 71.1 °F - 60.1 °F 68% 30.14 in 10.0 mi SSE 4.6 mph - N/A   Clear